Wink, TX

1:58 AM CDT on May 26, 2017 (GMT -0500)
Winkler County

Weather History for KINK - March, 2012

Change the Weather History Date:

Wednesday, March 14, 2012

  Actual Average Record
Temperature  
Mean Temperature 68 °F -  
Max Temperature 82 °F 73 °F 91 °F (2008)
Min Temperature 55 °F 40 °F 17 °F (1988)
Cooling Degree Days 4    
Growing Degree Days 18 (Base 50)    
Moisture  
Dew Point 52 °F    
Average Humidity 80    
Maximum Humidity 100    
Minimum Humidity 13    
Precipitation  
Precipitation 0.00 in - - ()
Sea Level Pressure  
Sea Level Pressure 29.94 in    
Wind  
Wind Speed 7 mph (SSE)    
Max Wind Speed 15 mph    
Max Gust Speed -    
Visibility 5 miles    
Events Fog    
Averages and records for this station are not official NWS values.
T = Trace of Precipitation, MM = Missing Value Source: NWS Daily Summary

Daily Weather History Graph

Daily Weather History Graph

Search for Another Location

Airport or City:

Trip Planner

Search our weather history database for the weather conditions in past years. The results will help you decide how hot, cold, wet, or windy it might be!

Date:

Astronomy

Mar. 14, 2012 Rise Set
Actual Time 8:03 AM CDT 8:00 PM CDT
Civil Twilight 7:39 AM CDT 8:24 PM CDT
Nautical Twilight 7:10 AM CDT 8:53 PM CDT
Astronomical Twilight 6:42 AM CDT 9:21 PM CDT
Moon 2:14 AM CDT (3/14) 12:40 PM CDT (3/14)
Length of Visible Light 12h 45m
Length of Day
11h 57m
Waning Gibbous, 54% of the Moon is Illuminated
Mar 14
Waning Gibbous
Mar 14
Last Quarter
Mar 22
New
Mar 30
First Quarter
Apr 6
Full

Hourly Weather History & Observations

Time (CDT) Temp. Dew Point Humidity Pressure Visibility Wind Dir Wind Speed Gust Speed Precip Events Conditions
12:53 AM 61.0 °F 57.9 °F 90% 29.89 in 9.0 mi ESE 10.4 mph - N/A   Clear
1:53 AM 61.0 °F 57.9 °F 90% 29.87 in 7.0 mi SE 12.7 mph - N/A   Clear
2:53 AM 59.0 °F 57.9 °F 96% 29.85 in 5.0 mi ESE 11.5 mph - N/A   Clear
3:53 AM 57.9 °F 57.9 °F 100% 29.86 in 4.0 mi ESE 9.2 mph - N/A   Clear
4:53 AM 57.9 °F 57.9 °F 100% 29.84 in 3.0 mi SE 9.2 mph - N/A   Clear
5:27 AM 57.2 °F 57.2 °F 100% 29.95 in 2.5 mi SE 6.9 mph - N/A   Clear
5:39 AM 57.2 °F 57.2 °F 100% 29.95 in 3.0 mi SE 8.1 mph - N/A   Clear
5:53 AM 57.9 °F 57.0 °F 97% 29.85 in 3.0 mi SE 9.2 mph - N/A   Clear
6:53 AM 57.0 °F 57.0 °F 100% 29.87 in 4.0 mi SE 6.9 mph - N/A   Clear
7:53 AM 55.9 °F 55.0 °F 97% 29.90 in 2.5 mi SSE 4.6 mph - N/A   Clear
8:04 AM 55.4 °F 55.4 °F 100% 30.00 in 1.8 mi SSW 3.5 mph - N/A   Partly Cloudy
8:14 AM 55.4 °F 55.4 °F 100% 30.00 in 0.8 mi Calm Calm - N/A   Mostly Cloudy
8:27 AM 55.4 °F 55.4 °F 100% 30.01 in 1.0 mi Calm Calm - N/A   Overcast
8:42 AM 57.2 °F 57.2 °F 100% 30.02 in 0.5 mi South 5.8 mph - N/A Fog Fog
8:49 AM 57.2 °F 57.2 °F 100% 30.02 in 0.2 mi South 8.1 mph - N/A Fog Fog
8:53 AM 57.0 °F 55.9 °F 96% 29.93 in 0.2 mi SSE 8.1 mph - N/A Fog Fog
9:01 AM 55.4 °F 55.4 °F 100% 30.02 in 0.8 mi SSE 8.1 mph - N/A   Overcast
9:13 AM 55.4 °F 55.4 °F 100% 30.02 in 1.5 mi South 5.8 mph - N/A   Overcast
9:27 AM 55.4 °F 55.4 °F 100% 30.03 in 0.5 mi SSW 4.6 mph - N/A Fog Fog
9:37 AM 55.4 °F 55.4 °F 100% 30.03 in 0.2 mi SSW 3.5 mph - N/A Fog Fog
9:53 AM 55.0 °F 55.0 °F 100% 29.95 in 0.2 mi Calm Calm - N/A Fog Fog
10:38 AM 55.4 °F 55.4 °F 100% 30.05 in 0.5 mi Calm Calm - N/A Fog Fog
10:53 AM 55.9 °F 55.9 °F 100% 29.99 in 0.5 mi Calm Calm - N/A Fog Fog
11:06 AM 57.2 °F 55.4 °F 94% 30.07 in 1.2 mi Calm Calm - N/A   Overcast
11:23 AM 57.2 °F 57.2 °F 100% 30.06 in 3.0 mi Calm Calm - N/A   Overcast
11:53 AM 59.0 °F 57.0 °F 93% 29.98 in 5.0 mi Calm Calm - N/A   Partly Cloudy
12:53 PM 64.9 °F 57.0 °F 75% 29.98 in 8.0 mi Calm Calm - N/A   Clear
1:53 PM 70.0 °F 57.9 °F 65% 29.95 in 10.0 mi WSW 3.5 mph - N/A   Clear
2:53 PM 77.0 °F 51.1 °F 40% 29.91 in 10.0 mi Calm Calm - N/A   Clear
3:53 PM 80.1 °F 48.0 °F 32% 29.88 in 10.0 mi SSE 6.9 mph - N/A   Clear
4:53 PM 82.0 °F 35.1 °F 18% 29.86 in 10.0 mi Variable 3.5 mph - N/A   Clear
5:53 PM 82.9 °F 28.9 °F 14% 29.84 in 10.0 mi SSE 5.8 mph - N/A   Clear
6:53 PM 81.0 °F 26.1 °F 13% 29.85 in 10.0 mi SSE 5.8 mph - N/A   Clear
7:53 PM 73.9 °F 21.9 °F 14% 29.88 in 10.0 mi SSE 8.1 mph - N/A   Clear
8:53 PM 68.0 °F 27.0 °F 21% 29.90 in 10.0 mi SE 10.4 mph - N/A   Clear
9:53 PM 69.1 °F 55.0 °F 61% 29.93 in 10.0 mi SE 11.5 mph - N/A   Clear
10:53 PM 66.9 °F 57.9 °F 73% 29.95 in 10.0 mi SE 12.7 mph - N/A   Clear
11:53 PM 66.0 °F 57.9 °F 75% 29.95 in 7.0 mi SE 15.0 mph - N/A   Clear